| time (UTC) | temp F | wind direction | speed knots | gust knots | rain 1hr in | rain 24hr in | rain mn in | humidity % | barometer mb |
| 20260504214525 | 71 | 310 | 6.1 | 11.3 | 0.00 | 0.00 | 0.00 | 38 | 999.8 |
| 20260504213022 | 71 | 267 | 5.2 | 17.4 | 0.00 | 0.00 | 0.00 | 35 | 999.9 |
| 20260504211526 | 72 | 277 | 8.7 | 16.5 | 0.00 | 0.00 | 0.00 | 36 | 1000.0 |
| 20260504210017 | 72 | 286 | 7.0 | 16.5 | 0.00 | 0.00 | 0.00 | 36 | 1000.1 |
| 20260504204518 | 72 | 276 | 7.0 | 16.5 | 0.00 | 0.00 | 0.00 | 36 | 1000.2 |
| 20260504203013 | 72 | 302 | 7.8 | 18.2 | 0.00 | 0.00 | 0.00 | 38 | 1000.3 |
| 20260504201511 | 71 | 233 | 7.8 | 14.8 | 0.00 | 0.00 | 0.00 | 40 | 1000.5 |
| 20260504200008 | 71 | 259 | 7.0 | 15.6 | 0.00 | 0.00 | 0.00 | 39 | 1000.8 |
| 20260504194507 | 71 | 296 | 9.6 | 20.0 | 0.00 | 0.00 | 0.00 | 39 | 1001.0 |
| 20260504193004 | 69 | 268 | 9.6 | 15.6 | 0.00 | 0.00 | 0.00 | 41 | 1001.3 |
| 20260504191503 | 71 | 276 | 13.0 | 23.5 | 0.00 | 0.00 | 0.00 | 40 | 1001.5 |
| 20260504190116 | 70 | 283 | 8.7 | 19.1 | 0.00 | 0.00 | 0.00 | 45 | 1001.7 |
| 20260504184626 | 68 | 294 | 7.0 | 17.4 | 0.00 | 0.00 | 0.00 | 47 | 1001.8 |
| 20260504183057 | 70 | 256 | 7.8 | 17.4 | 0.00 | 0.00 | 0.00 | 45 | 1002.0 |
| 20260504181557 | 70 | 303 | 9.6 | 20.9 | 0.00 | 0.00 | 0.00 | 48 | 1002.1 |
| 20260504180055 | 69 | 296 | 11.3 | 18.2 | 0.00 | 0.00 | 0.00 | 47 | 1002.2 |
| 20260504174553 | 69 | 273 | 12.2 | 21.7 | 0.00 | 0.00 | 0.00 | 51 | 1002.2 |
| 20260504173050 | 69 | 266 | 8.7 | 14.8 | 0.00 | 0.00 | 0.00 | 52 | 1002.2 |
| 20260504171550 | 68 | 273 | 8.7 | 22.6 | 0.00 | 0.00 | 0.00 | 55 | 1002.4 |
| 20260504081517 | 49 | 265 | 7.8 | 16.5 | 0.00 | 0.00 | 0.00 | 61 | 1005.5 |
| 20260504060106 | 49 | 265 | 7.0 | 15.6 | 0.00 | 0.00 | 0.00 | 60 | 1006.2 |
| 20260504044550 | 49 | 267 | 5.2 | 11.3 | 0.00 | 0.00 | 0.00 | 59 | 1006.5 |
| 20260504043045 | 49 | 244 | 6.1 | 13.0 | 0.00 | 0.00 | 0.00 | 60 | 1006.5 |
| 20260504041542 | 49 | 275 | 3.5 | 10.4 | 0.00 | 0.00 | 0.00 | 60 | 1006.6 |
| 20260504040044 | 49 | 264 | 8.7 | 11.3 | 0.00 | 0.00 | 0.00 | 60 | 1006.8 |
| 20260504034539 | 49 | 242 | 3.5 | 9.6 | 0.00 | 0.00 | 0.00 | 61 | 1006.7 |
| 20260504033049 | 50 | 275 | 2.6 | 8.7 | 0.00 | 0.00 | 0.00 | 61 | 1006.8 |
| 20260504031538 | 50 | 254 | 4.3 | 7.8 | 0.00 | 0.00 | 0.00 | 60 | 1006.7 |
| 20260504030037 | 50 | 266 | 5.2 | 11.3 | 0.00 | 0.00 | 0.00 | 59 | 1006.8 |
| 20260504024545 | 51 | 269 | 5.2 | 12.2 | 0.00 | 0.00 | 0.00 | 59 | 1006.9 |
| 20260504023036 | 51 | 285 | 6.1 | 11.3 | 0.00 | 0.00 | 0.00 | 59 | 1007.1 |
| 20260504021539 | 52 | 281 | 5.2 | 13.9 | 0.00 | 0.00 | 0.00 | 59 | 1007.2 |
| 20260504020034 | 52 | 302 | 7.8 | 21.7 | 0.00 | 0.00 | 0.00 | 58 | 1007.3 |
| 20260504014534 | 52 | 271 | 8.7 | 22.6 | 0.00 | 0.00 | 0.00 | 57 | 1007.4 |
| 20260504013038 | 52 | 291 | 10.4 | 21.7 | 0.00 | 0.00 | 0.00 | 56 | 1007.2 |
| 20260504011533 | 52 | 304 | 10.4 | 16.5 | 0.00 | 0.00 | 0.00 | 57 | 1007.2 |
| 20260504010032 | 51 | 309 | 9.6 | 18.2 | 0.00 | 0.00 | 0.00 | 58 | 1007.2 |
| 20260504004541 | 51 | 299 | 7.8 | 18.2 | 0.00 | 0.00 | 0.00 | 58 | 1007.2 |
| 20260504003030 | 52 | 293 | 14.8 | 26.1 | 0.00 | 0.00 | 0.00 | 56 | 1007.5 |
| 20260504001530 | 52 | 301 | 12.2 | 20.9 | 0.00 | 0.00 | 0.00 | 53 | 1007.2 |
| 20260504000030 | 52 | 298 | 11.3 | 19.1 | 0.00 | 0.00 | 0.00 | 52 | 1007.0 |
| 20260503234529 | 52 | 285 | 12.2 | 23.5 | 0.00 | 0.00 | 0.00 | 53 | 1007.0 |
| 20260503233031 | 52 | 315 | 13.9 | 25.2 | 0.00 | 0.00 | 0.00 | 53 | 1007.2 |
| 20260503231527 | 53 | 334 | 13.0 | 25.2 | 0.00 | 0.00 | 0.00 | 51 | 1007.0 |
| 20260503230032 | 53 | 312 | 20.0 | 32.2 | 0.00 | 0.00 | 0.00 | 49 | 1006.8 |
| 20260503224526 | 54 | 301 | 16.5 | 27.8 | 0.00 | 0.00 | 0.00 | 48 | 1006.8 |
| 20260503223026 | 54 | 296 | 11.3 | 25.2 | 0.00 | 0.00 | 0.00 | 48 | 1006.7 |
| 20260503221525 | 54 | 321 | 9.6 | 23.5 | 0.00 | 0.00 | 0.00 | 49 | 1006.8 |
| 20260503220025 | 54 | 300 | 18.2 | 33.0 | 0.00 | 0.00 | 0.00 | 45 | 1006.7 |